EVY13 YSCB-YSNW

Flight info

Callsign EVY13
Flight time 1h 6m
Altitude 18000
Route DCT AVBEG W137 CWR/N0362F170 W654 VIRUR/N0343F130 W801 AKMIR W575 NWA DCT
Aircraft B38M/M-SADE2E3FGHIJ1J3J4J7M3P2RWXYZ/LB1D1

Departure

Time 2026-04-24 11:30
Airport Canberra Airport (YSCB)

Arrival

Time 2026-04-24 12:37
Airport Naval Air Station Nowra - HMAS Albatross (YSNW)
Time Latitude Longitude Altitude Speed Heading
2026-04-24 11:15 -35.30351 149.19995 1882 ft 0 kts 305°
2026-04-24 11:25 -35.30350 149.19992 1882 ft 2 kts 305°
2026-04-24 11:25 -35.30338 149.19964 1878 ft 5 kts 284°
2026-04-24 11:25 -35.30334 149.19892 1882 ft 14 kts 274°
2026-04-24 11:25 -35.30320 149.19744 1877 ft 20 kts 290°
2026-04-24 11:26 -35.30230 149.19606 1882 ft 22 kts 338°
2026-04-24 11:26 -35.30073 149.19594 1879 ft 24 kts
2026-04-24 11:26 -35.29896 149.19595 1882 ft 27 kts 360°
2026-04-24 11:26 -35.29700 149.19594 1882 ft 29 kts 360°
2026-04-24 11:27 -35.29496 149.19594 1882 ft 28 kts 359°
2026-04-24 11:27 -35.29292 149.19593 1882 ft 31 kts 360°
2026-04-24 11:27 -35.29154 149.19593 1882 ft 23 kts
2026-04-24 11:27 -35.29068 149.19544 1880 ft 8 kts 294°
2026-04-24 11:28 -35.29069 149.19470 1882 ft 10 kts 261°
2026-04-24 11:28 -35.29106 149.19443 1882 ft 7 kts 185°
2026-04-24 11:28 -35.29128 149.19443 1876 ft 0 kts 179°
2026-04-24 11:29 -35.29133 149.19443 1882 ft 4 kts 179°
2026-04-24 11:29 -35.29337 149.19443 1882 ft 66 kts 180°
2026-04-24 11:30 -35.30035 149.19443 1875 ft 131 kts 180°
2026-04-24 11:30 -35.31061 149.19426 2198 ft 153 kts 181°
2026-04-24 11:30 -35.32159 149.19389 2852 ft 161 kts 179°
2026-04-24 11:30 -35.33327 149.19381 3516 ft 179 kts 179°
2026-04-24 11:31 -35.34654 149.19266 4163 ft 202 kts 189°
2026-04-24 11:31 -35.36076 149.18901 4880 ft 221 kts 191°
2026-04-24 11:31 -35.37650 149.18491 5608 ft 240 kts 191°
2026-04-24 11:31 -35.39361 149.18056 6313 ft 260 kts 190°
2026-04-24 11:32 -35.41851 149.17617 7349 ft 276 kts 173°
2026-04-24 11:32 -35.43087 149.17954 8072 ft 274 kts 157°
2026-04-24 11:32 -35.44695 149.19210 9030 ft 278 kts 135°
2026-04-24 11:32 -35.45842 149.21124 10001 ft 282 kts 112°
2026-04-24 11:33 -35.46227 149.23522 10754 ft 296 kts 87°
2026-04-24 11:33 -35.45676 149.25983 11488 ft 308 kts 61°
2026-04-24 11:33 -35.44287 149.27965 12304 ft 318 kts 37°
2026-04-24 11:33 -35.42282 149.29121 13342 ft 323 kts 14°
2026-04-24 11:34 -35.40034 149.29574 14305 ft 330 kts
2026-04-24 11:34 -35.37740 149.30022 15220 ft 336 kts
2026-04-24 11:34 -35.35416 149.30470 16170 ft 340 kts
2026-04-24 11:34 -35.33052 149.30919 17093 ft 345 kts
2026-04-24 11:35 -35.30691 149.31347 17989 ft 350 kts
2026-04-24 11:35 -35.28223 149.31235 18199 ft 355 kts 346°
2026-04-24 11:35 -35.25936 149.30113 18372 ft 355 kts 333°
2026-04-24 11:35 -35.23710 149.28794 18499 ft 358 kts 334°
2026-04-24 11:36 -35.21455 149.27452 18513 ft 364 kts 334°
2026-04-24 11:36 -35.19156 149.26071 18512 ft 381 kts 334°
2026-04-24 11:36 -35.16697 149.24588 18505 ft 398 kts 334°
2026-04-24 11:36 -35.14172 149.23064 18509 ft 409 kts 334°
2026-04-24 11:37 -35.11631 149.21529 18517 ft 415 kts 334°
2026-04-24 11:37 -35.09033 149.19961 18520 ft 417 kts 334°
2026-04-24 11:37 -35.06420 149.18385 18525 ft 417 kts 334°
2026-04-24 11:37 -35.03846 149.16834 18531 ft 417 kts 334°
2026-04-24 11:38 -35.01250 149.15271 18527 ft 417 kts 334°
2026-04-24 11:38 -34.98636 149.13698 18527 ft 417 kts 334°
2026-04-24 11:38 -34.96031 149.12131 18528 ft 417 kts 334°
2026-04-24 11:38 -34.93426 149.10565 18529 ft 417 kts 334°
2026-04-24 11:39 -34.90825 149.09003 18526 ft 417 kts 334°
2026-04-24 11:39 -34.88215 149.07437 18519 ft 417 kts 334°
2026-04-24 11:39 -34.85641 149.05893 18521 ft 417 kts 334°
2026-04-24 11:39 -34.83021 149.04355 18514 ft 417 kts 338°
2026-04-24 11:40 -34.80270 149.03199 18517 ft 417 kts 342°
2026-04-24 11:40 -34.77516 149.02088 18515 ft 417 kts 342°
2026-04-24 11:40 -34.74757 149.00983 18517 ft 417 kts 342°
2026-04-24 11:40 -34.72003 148.99883 18515 ft 417 kts 342°
2026-04-24 11:41 -34.69246 148.98782 18516 ft 417 kts 342°
2026-04-24 11:41 -34.66525 148.97696 18510 ft 417 kts 342°
2026-04-24 11:41 -34.63762 148.96595 18510 ft 417 kts 342°
2026-04-24 11:41 -34.61004 148.95497 18511 ft 417 kts 342°
2026-04-24 11:42 -34.58243 148.94398 18514 ft 417 kts 342°
2026-04-24 11:42 -34.55488 148.93302 18503 ft 417 kts 342°
2026-04-24 11:42 -34.52721 148.92203 18508 ft 417 kts 342°
2026-04-24 11:42 -34.49963 148.91107 18505 ft 417 kts 342°
2026-04-24 11:43 -34.47239 148.90026 18506 ft 417 kts 342°
2026-04-24 11:43 -34.44476 148.88931 18501 ft 417 kts 342°
2026-04-24 11:43 -34.41705 148.87832 18501 ft 417 kts 342°
2026-04-24 11:43 -34.38946 148.86740 18500 ft 417 kts 342°
2026-04-24 11:44 -34.36180 148.85645 18504 ft 417 kts 342°
2026-04-24 11:44 -34.33453 148.84567 18503 ft 417 kts 342°
2026-04-24 11:44 -34.30662 148.83463 18503 ft 417 kts 342°
2026-04-24 11:44 -34.27937 148.82387 18497 ft 417 kts 342°
2026-04-24 11:45 -34.25177 148.81298 18500 ft 417 kts 342°
2026-04-24 11:45 -34.22426 148.80213 18501 ft 417 kts 342°
2026-04-24 11:45 -34.19699 148.79138 18315 ft 407 kts 342°
2026-04-24 11:45 -34.17050 148.78095 18081 ft 394 kts 342°
2026-04-24 11:46 -34.14463 148.77077 17826 ft 383 kts 342°
2026-04-24 11:46 -34.11962 148.76093 17576 ft 374 kts 342°
2026-04-24 11:46 -34.09513 148.75130 17327 ft 366 kts 342°
2026-04-24 11:46 -34.07108 148.74185 17069 ft 364 kts 342°
2026-04-24 11:47 -34.04726 148.73250 16814 ft 362 kts 342°
2026-04-24 11:47 -34.02305 148.72300 16557 ft 361 kts 342°
2026-04-24 11:47 -33.99945 148.71374 16308 ft 360 kts 342°
2026-04-24 11:47 -33.97567 148.70442 16056 ft 359 kts 342°
2026-04-24 11:48 -33.95194 148.69513 15806 ft 357 kts 342°
2026-04-24 11:48 -33.92834 148.68589 15561 ft 356 kts 342°
2026-04-24 11:48 -33.90484 148.67669 15312 ft 355 kts 343°
2026-04-24 11:48 -33.88128 148.66761 15063 ft 353 kts 345°
2026-04-24 11:49 -33.85729 148.66444 14824 ft 349 kts
2026-04-24 11:49 -33.83393 148.67135 14585 ft 346 kts 25°
2026-04-24 11:49 -33.81372 148.68677 14361 ft 343 kts 39°
2026-04-24 11:49 -33.79504 148.70459 14110 ft 342 kts 40°
2026-04-24 11:50 -33.77655 148.72262 13854 ft 341 kts 40°
2026-04-24 11:50 -33.75830 148.74062 13601 ft 339 kts 41°
2026-04-24 11:50 -33.74014 148.75870 13349 ft 338 kts 41°
2026-04-24 11:50 -33.72208 148.77675 13096 ft 336 kts 41°
2026-04-24 11:51 -33.70355 148.79293 12715 ft 335 kts 28°
2026-04-24 11:51 -33.68116 148.80077 12258 ft 337 kts
2026-04-24 11:51 -33.65800 148.80351 11870 ft 334 kts
2026-04-24 11:51 -33.63500 148.80621 11464 ft 331 kts
2026-04-24 11:52 -33.61213 148.80883 11140 ft 326 kts
2026-04-24 11:52 -33.58993 148.81134 10979 ft 316 kts
2026-04-24 11:52 -33.56839 148.81376 10817 ft 306 kts
2026-04-24 11:52 -33.54736 148.81611 10551 ft 301 kts
2026-04-24 11:53 -33.52688 148.81838 10148 ft 297 kts
2026-04-24 11:53 -33.50635 148.82066 9671 ft 295 kts
2026-04-24 11:53 -33.48605 148.82291 9305 ft 289 kts
2026-04-24 11:53 -33.46622 148.82511 8990 ft 281 kts
2026-04-24 11:54 -33.44686 148.82725 8689 ft 277 kts
2026-04-24 11:54 -33.42767 148.82937 8379 ft 275 kts
2026-04-24 11:54 -33.40900 148.83143 8195 ft 268 kts
2026-04-24 11:54 -33.39076 148.83344 8068 ft 259 kts
2026-04-24 11:55 -33.37312 148.83540 7941 ft 250 kts
2026-04-24 11:55 -33.35600 148.83728 7809 ft 243 kts
2026-04-24 11:55 -33.33945 148.83911 7675 ft 235 kts
2026-04-24 11:55 -33.32350 148.84086 7558 ft 227 kts
2026-04-24 11:56 -33.30881 148.84574 7330 ft 221 kts 34°
2026-04-24 11:56 -33.29801 148.85844 7070 ft 217 kts 54°
2026-04-24 11:56 -33.28909 148.87294 6829 ft 215 kts 54°
2026-04-24 11:56 -33.28047 148.88727 6651 ft 209 kts 55°
2026-04-24 11:57 -33.27227 148.90110 6522 ft 203 kts 55°
2026-04-24 11:57 -33.26575 148.91618 6389 ft 207 kts 78°
2026-04-24 11:57 -33.26651 148.93326 6249 ft 210 kts 107°
2026-04-24 11:57 -33.27359 148.94865 6140 ft 213 kts 122°
2026-04-24 11:58 -33.28196 148.96327 5950 ft 213 kts 122°
2026-04-24 11:58 -33.29042 148.97782 5656 ft 211 kts 122°
2026-04-24 11:58 -33.29860 148.99176 5456 ft 203 kts 122°
2026-04-24 11:58 -33.30652 149.00512 5274 ft 188 kts 122°
2026-04-24 11:59 -33.31361 149.01705 5108 ft 162 kts 122°
2026-04-24 11:59 -33.31966 149.02725 5008 ft 143 kts 122°
2026-04-24 11:59 -33.32537 149.03679 4782 ft 138 kts 122°
2026-04-24 11:59 -33.33088 149.04597 4565 ft 134 kts 122°
2026-04-24 12:00 -33.33633 149.05503 4369 ft 134 kts 122°
2026-04-24 12:00 -33.34172 149.06402 4187 ft 132 kts 122°
2026-04-24 12:00 -33.34699 149.07284 4027 ft 132 kts 121°
2026-04-24 12:00 -33.35239 149.08186 3842 ft 132 kts 120°
2026-04-24 12:01 -33.35772 149.09075 3662 ft 134 kts 121°
2026-04-24 12:01 -33.36315 149.09981 3481 ft 137 kts 121°
2026-04-24 12:01 -33.36893 149.10954 3902 ft 145 kts 121°
2026-04-24 12:01 -33.37524 149.12005 4195 ft 166 kts 122°
2026-04-24 12:02 -33.38232 149.13164 4607 ft 182 kts 123°
2026-04-24 12:02 -33.39019 149.14473 4822 ft 204 kts 123°
2026-04-24 12:02 -33.39872 149.15922 5046 ft 222 kts 123°
2026-04-24 12:02 -33.40725 149.17470 5549 ft 222 kts 111°
2026-04-24 12:03 -33.40850 149.19253 6052 ft 218 kts 72°
2026-04-24 12:03 -33.39969 149.20687 6561 ft 219 kts 32°
2026-04-24 12:03 -33.38493 149.21090 7048 ft 226 kts 353°
2026-04-24 12:03 -33.37097 149.20236 7527 ft 235 kts 315°
2026-04-24 12:04 -33.36188 149.18582 8007 ft 243 kts 295°
2026-04-24 12:04 -33.35903 149.16589 8521 ft 248 kts 264°
2026-04-24 12:04 -33.36498 149.14657 9006 ft 252 kts 233°
2026-04-24 12:04 -33.37762 149.13236 9550 ft 251 kts 209°
2026-04-24 12:05 -33.39370 149.12472 10072 ft 249 kts 184°
2026-04-24 12:05 -33.41011 149.12820 10612 ft 240 kts 147°
2026-04-24 12:05 -33.42178 149.14177 10989 ft 242 kts 123°
2026-04-24 12:05 -33.43131 149.15955 11584 ft 262 kts 116°
2026-04-24 12:06 -33.43931 149.17999 12353 ft 281 kts 113°
2026-04-24 12:06 -33.44939 149.20109 12895 ft 305 kts 129°
2026-04-24 12:06 -33.46492 149.21887 13025 ft 312 kts 135°
2026-04-24 12:06 -33.48050 149.23720 13138 ft 316 kts 134°
2026-04-24 12:07 -33.49601 149.25601 13268 ft 317 kts 133°
2026-04-24 12:07 -33.51141 149.27492 13415 ft 318 kts 133°
2026-04-24 12:07 -33.52711 149.29440 13470 ft 333 kts 133°
2026-04-24 12:07 -33.54355 149.31493 13467 ft 350 kts 133°
2026-04-24 12:08 -33.56077 149.33650 13466 ft 366 kts 133°
2026-04-24 12:08 -33.57854 149.35878 13479 ft 372 kts 133°
2026-04-24 12:08 -33.59652 149.38135 13498 ft 375 kts 133°
2026-04-24 12:08 -33.61460 149.40405 13516 ft 376 kts 133°
2026-04-24 12:09 -33.63264 149.42671 13527 ft 376 kts 133°
2026-04-24 12:09 -33.65071 149.44942 13523 ft 376 kts 133°
2026-04-24 12:09 -33.66876 149.47212 13528 ft 376 kts 133°
2026-04-24 12:09 -33.68679 149.49481 13528 ft 376 kts 133°
2026-04-24 12:10 -33.70457 149.51720 13528 ft 376 kts 133°
2026-04-24 12:10 -33.72260 149.53992 13531 ft 376 kts 133°
2026-04-24 12:10 -33.74083 149.56257 13530 ft 376 kts 133°
2026-04-24 12:11 -33.77731 149.60756 13536 ft 376 kts 133°
2026-04-24 12:11 -33.79557 149.63013 13535 ft 376 kts 133°
2026-04-24 12:11 -33.81379 149.65268 13539 ft 376 kts 133°
2026-04-24 12:11 -33.83204 149.67527 13536 ft 376 kts 133°
2026-04-24 12:12 -33.85023 149.69780 13544 ft 376 kts 133°
2026-04-24 12:12 -33.86846 149.72041 13541 ft 376 kts 133°
2026-04-24 12:12 -33.88666 149.74298 13541 ft 376 kts 133°
2026-04-24 12:12 -33.90486 149.76556 13540 ft 376 kts 133°
2026-04-24 12:13 -33.92304 149.78811 13542 ft 376 kts 133°
2026-04-24 12:13 -33.94127 149.81076 13538 ft 376 kts 133°
2026-04-24 12:13 -33.95945 149.83334 13538 ft 376 kts 133°
2026-04-24 12:13 -33.97764 149.85596 13535 ft 376 kts 133°
2026-04-24 12:14 -33.99586 149.87862 13539 ft 376 kts 133°
2026-04-24 12:14 -34.01411 149.90134 13536 ft 376 kts 133°
2026-04-24 12:14 -34.03234 149.92406 13530 ft 377 kts 133°
2026-04-24 12:14 -34.05057 149.94678 13532 ft 377 kts 133°
2026-04-24 12:15 -34.06878 149.96950 13539 ft 377 kts 133°
2026-04-24 12:15 -34.08698 149.99221 13538 ft 376 kts 133°
2026-04-24 12:15 -34.10495 150.01466 13530 ft 377 kts 133°
2026-04-24 12:15 -34.12314 150.03740 13531 ft 377 kts 133°
2026-04-24 12:16 -34.14135 150.06016 13528 ft 377 kts 133°
2026-04-24 12:16 -34.15957 150.08297 13533 ft 377 kts 133°
2026-04-24 12:16 -34.17881 150.10447 13516 ft 378 kts 144°
2026-04-24 12:16 -34.20217 150.11916 13531 ft 380 kts 154°
2026-04-24 12:17 -34.22610 150.13263 13528 ft 380 kts 154°
2026-04-24 12:17 -34.24231 150.14168 13528 ft 380 kts 154°
2026-04-24 12:17 -34.27403 150.15925 13525 ft 380 kts 154°
2026-04-24 12:17 -34.29029 150.16822 13528 ft 380 kts 154°
2026-04-24 12:18 -34.31441 150.18153 13526 ft 380 kts 154°
2026-04-24 12:18 -34.33842 150.19478 13528 ft 380 kts 154°
2026-04-24 12:18 -34.36249 150.20807 13523 ft 380 kts 154°
2026-04-24 12:18 -34.38647 150.22131 13526 ft 380 kts 154°
2026-04-24 12:19 -34.41041 150.23455 13522 ft 380 kts 154°
2026-04-24 12:19 -34.43422 150.24771 13527 ft 373 kts 154°
2026-04-24 12:19 -34.45727 150.26047 13542 ft 355 kts 154°
2026-04-24 12:19 -34.47917 150.27259 13476 ft 340 kts 154°
2026-04-24 12:20 -34.50042 150.28437 13208 ft 332 kts 154°
2026-04-24 12:20 -34.52137 150.29599 12778 ft 330 kts 154°
2026-04-24 12:20 -34.54219 150.30753 12364 ft 328 kts 154°
2026-04-24 12:20 -34.56284 150.31899 11981 ft 325 kts 154°
2026-04-24 12:21 -34.58338 150.33039 11531 ft 325 kts 154°
2026-04-24 12:21 -34.60407 150.34189 10925 ft 330 kts 154°
2026-04-24 12:21 -34.62490 150.35347 10590 ft 326 kts 154°
2026-04-24 12:21 -34.64524 150.36478 10401 ft 317 kts 154°
2026-04-24 12:22 -34.66499 150.37577 10228 ft 307 kts 153°
2026-04-24 12:22 -34.68416 150.38644 10063 ft 298 kts 153°
2026-04-24 12:22 -34.70292 150.39688 9730 ft 295 kts 153°
2026-04-24 12:22 -34.72206 150.40562 9367 ft 296 kts 168°
2026-04-24 12:23 -34.74274 150.40600 9031 ft 297 kts 181°
2026-04-24 12:23 -34.76332 150.40475 8710 ft 295 kts 181°
2026-04-24 12:23 -34.78368 150.40347 8389 ft 293 kts 181°
2026-04-24 12:23 -34.80399 150.40216 8079 ft 290 kts 181°
2026-04-24 12:24 -34.82403 150.40084 7765 ft 287 kts 181°
2026-04-24 12:24 -34.84389 150.39952 7471 ft 286 kts 181°
2026-04-24 12:24 -34.86375 150.39820 7147 ft 285 kts 181°
2026-04-24 12:24 -34.88352 150.39689 6830 ft 284 kts 181°
2026-04-24 12:25 -34.90322 150.39557 6499 ft 283 kts 182°
2026-04-24 12:25 -34.92261 150.39426 6178 ft 282 kts 182°
2026-04-24 12:25 -34.94214 150.39296 5876 ft 280 kts 182°
2026-04-24 12:25 -34.96153 150.39166 5587 ft 278 kts 182°
2026-04-24 12:26 -34.98059 150.39039 5439 ft 270 kts 182°
2026-04-24 12:26 -34.99900 150.38916 5299 ft 261 kts 182°
2026-04-24 12:26 -35.01690 150.38796 5162 ft 253 kts 182°
2026-04-24 12:26 -35.03420 150.38680 5026 ft 245 kts 182°
2026-04-24 12:27 -35.05098 150.38568 4891 ft 238 kts 182°
2026-04-24 12:27 -35.06727 150.38457 4799 ft 232 kts 182°
2026-04-24 12:27 -35.08327 150.38349 4628 ft 227 kts 182°
2026-04-24 12:27 -35.09889 150.38245 4504 ft 222 kts 182°
2026-04-24 12:28 -35.11424 150.38143 4403 ft 220 kts 182°
2026-04-24 12:28 -35.12898 150.37742 4251 ft 218 kts 208°
2026-04-24 12:28 -35.14171 150.36724 4294 ft 220 kts 216°
2026-04-24 12:28 -35.15415 150.35622 4302 ft 221 kts 217°
2026-04-24 12:29 -35.16652 150.34522 4304 ft 219 kts 217°
2026-04-24 12:29 -35.17756 150.33279 4239 ft 214 kts 243°
2026-04-24 12:29 -35.17960 150.31581 4153 ft 202 kts 291°
2026-04-24 12:29 -35.17088 150.30336 4195 ft 197 kts 339°
2026-04-24 12:30 -35.15769 150.30354 4244 ft 196 kts 27°
2026-04-24 12:30 -35.14886 150.31594 4287 ft 201 kts 65°
2026-04-24 12:30 -35.14434 150.33235 4315 ft 206 kts 71°
2026-04-24 12:30 -35.14021 150.34886 4303 ft 205 kts 70°
2026-04-24 12:31 -35.13438 150.36495 4255 ft 206 kts 50°
2026-04-24 12:31 -35.12391 150.37607 4082 ft 200 kts 36°
2026-04-24 12:31 -35.11299 150.38611 3933 ft 191 kts 36°
2026-04-24 12:31 -35.10285 150.39540 3875 ft 175 kts 36°
2026-04-24 12:32 -35.09329 150.40410 3814 ft 169 kts 35°
2026-04-24 12:32 -35.08393 150.41257 3596 ft 162 kts 35°
2026-04-24 12:32 -35.07531 150.42034 3300 ft 148 kts 35°
2026-04-24 12:32 -35.06721 150.42764 3177 ft 144 kts 35°
2026-04-24 12:33 -35.05912 150.43497 3044 ft 142 kts 34°
2026-04-24 12:33 -35.05145 150.44178 2879 ft 133 kts 35°
2026-04-24 12:33 -35.04416 150.44837 2715 ft 129 kts 36°
2026-04-24 12:33 -35.03695 150.45483 2559 ft 128 kts 34°
2026-04-24 12:34 -35.02982 150.46122 2460 ft 129 kts 35°
2026-04-24 12:34 -35.02262 150.46774 2338 ft 129 kts 34°
2026-04-24 12:34 -35.01537 150.47420 2071 ft 129 kts 35°
2026-04-24 12:34 -35.00800 150.48029 1890 ft 128 kts 33°
2026-04-24 12:35 -35.00053 150.48633 1668 ft 128 kts 32°
2026-04-24 12:35 -34.99305 150.49208 1497 ft 128 kts 31°
2026-04-24 12:35 -34.98557 150.49805 1314 ft 129 kts 33°
2026-04-24 12:35 -34.97821 150.50439 1139 ft 131 kts 36°
2026-04-24 12:36 -34.97097 150.51155 966 ft 136 kts 39°
2026-04-24 12:36 -34.96388 150.51909 802 ft 134 kts 42°
2026-04-24 12:36 -34.95714 150.52685 631 ft 133 kts 42°
2026-04-24 12:36 -34.95046 150.53459 449 ft 132 kts 43°
2026-04-24 12:37 -34.94421 150.54198 376 ft 106 kts 43°
2026-04-24 12:37 -34.94080 150.54600 380 ft 37 kts 45°
2026-04-24 12:37 -34.93908 150.54805 385 ft 27 kts 44°
2026-04-24 12:37 -34.93811 150.54932 386 ft 14 kts 71°
2026-04-24 12:38 -34.93850 150.55015 385 ft 7 kts 124°
2026-04-24 12:38 -34.93861 150.55081 385 ft 9 kts 104°
2026-04-24 12:38 -34.93889 150.55099 385 ft 4 kts 206°
2026-04-24 12:39 -34.93918 150.55066 384 ft 0 kts 225°